Regional Weather Roundup
Issued by NWS Newport/Morehead, NC

Current Version | Previous Version | Text Only | Print | Product List | Glossary On
Versions: 1 2 3 4 5 6 7 8 9 10 11 12 13 14 15 16 17 18 19 20 21 22 23 24 25 26 27 28 29 30 31 32 33 34 35 36 37 38 39 40 41 42 43 44 45 46 47 48 49 50
000 ASUS42 KMHX 011813 RWRMHX WEATHER ROUNDUP FOR EASTERN NORTH CAROLINA NATIONAL WEATHER SERVICE NEWPORT/MOREHEAD CITY NC 200 PM EDT WED JUL 01 2015 NOTE: "FAIR" INDICATES FEW OR NO CLOUDS BELOW 12,000 FEET WITH NO SIGNIFICANT WEATHER AND/OR OBSTRUCTIONS TO VISIBILITY NCZ015>017-031-032-045>047-102-103-011900- NORTH COAST CITY SKY/WX TMP DP RH WIND PRES REMARKS EDENTON N/A 84 70 61 SW8 29.94F ELIZABETH CITY SUNNY 84 67 56 SW10 29.92F KITTY HAWK CLEAR 88 69 54 NW6 29.92F MANTEO SUNNY 85 69 57 W7 29.93F $$ NCZ045>047-081-094-103-104-011900- CENTRAL COAST CITY SKY/WX TMP DP RH WIND PRES REMARKS FRISCO SUNNY 82 73 74 SW16G23 29.96F SWANQUARTER N/A 84 N/A N/A CALM 29.91S $$ NCZ095-097-098-100-101-011900- SOUTHERN COAST CITY SKY/WX TMP DP RH WIND PRES REMARKS BEAUFORT MOSUNNY 83 75 77 SW14 29.97F CEDAR ISLAND N/A 88 N/A N/A SW7G17 30.00S JACKSONVILLE MOSUNNY 84 71 65 SW8 29.96F PINEY ISLAND PTCLDY N/A N/A N/A SW12 29.95F WILMINGTON SUNNY 86 73 65 W9 29.97F $$ NCZ011>013-027>030-043-044-078>080-089-090>093-098-011900- COASTAL PLAIN CITY SKY/WX TMP DP RH WIND PRES REMARKS AHOSKIE SUNNY 82 68 62 CALM 29.93F CLINTON CLOUDY 79 72 80 SW5 29.98F ELIZABETHTOWN CLOUDY 78 69 74 SW6 29.99F GOLDSBORO MOSUNNY 84 70 63 VRB5 29.94F GREENVILLE SUNNY 86 68 54 SW3 29.96F HAVELOCK MOSUNNY 87 71 58 SW9G17 29.96F KENANSVILLE CLOUDY 78 70 75 CALM 29.99F KINSTON MOSUNNY 86 68 54 S8 29.97F NEW BERN MOSUNNY 86 72 62 SW10 29.96F RICHLANDS CLOUDY 82 70 65 SW9 29.97F ROCKY MOUNT MOSUNNY 88 67 49 SW8 29.94F WASHINGTON SUNNY 84 69 59 SW6 29.95F WHITEVILLE PTSUNNY 81 71 72 W6 29.98S $$ AMZ130-135-150-152-154-156-158-170-250-252-270-ANZ085-086-088-633-658-670-011900- MARINE OBSERVATIONS STATION/POSITION TIME TEMP WIND PRES WAVE SWELL AIR SEA DIR/SP/G HT/PER HT/PER (UTC) (F) (DEG/KT/KT) (MB) (FT/S) (FT/S) CHESAPEAKE LIGHT 1800 79 CALM 1013.3 64 E VA BEACH 1750 77 77 240/ 14/ 16 1012.8 5/ 7 3/ 7 DUCK 1700 80 59 250/ 11/ 15 1012.9 2 E DUCK 1711 71 N/A 2/ 8 OREGON INLET 1700 81 82 200/ 14/ 17 1013.7 13E OREGON INLT 1800 74 N/A 3/ 7 HATTERAS CG 1700 81 81 220/ 10/ 17 1014.4 DIAMOND BUOY 1750 80 83 240/ 19/ 21 1014.4 5/ 6 3/ 8 CAPE LOOKOUT 1800 81 220/ 12/ 18 1014.6 BEAUFORT LAB 1700 81 80 220/ 7/ 12 1014.4 30 SE NEW RVR IN 1708 80 81 260/ 16/ 21 1016.1 27 SE WRIGHTSVLE 1700 80 260/ 16/ 17 N/A 5 SE WRIGHTSVLE 1708 80 80 220/ 12/ 16 1015.4 225 S CAPE HAT 1750 82 80 230/ 17/ 23 1019.2 6/ 7 2/12 41 SE CHARLESTON 1750 79 81 240/ 19/ 23 1016.1 6/ 8 3/ 8 $$

USA.gov is the U.S. government's official web portal to all federal, state and local government web resources and services.